Location: Unnamed
(39.4956°N, 6.3666°W)
Time: 22:38:43
(UTC+02:00)

ISS - Visible Passes

Search period start: 20 May 2025 00:00
Search period end: 30 May 2025 00:00
Orbit: 416 x 419 km, 51.6° (Epoch: 20 May)

Date Brightness Start Highest point End Pass type
(mag) Time Alt. Az. Time Alt. Az. Time Alt. Az.
20 May -0.6 01:28:46 10° NW 01:29:07 12° NW 01:29:07 12° NW visible
20 May -1.0 23:04:53 10° NNW 23:06:38 13° NNE 23:08:22 10° NE visible
21 May -1.7 00:40:49 10° NW 00:42:43 28° NNW 00:42:43 28° NNW visible
21 May -0.9 22:17:04 10° NNW 22:18:18 12° N 22:19:31 10° NNE visible
21 May -2.3 23:52:55 10° NW 23:55:55 29° NNE 23:56:19 28° NE visible
22 May -1.6 23:05:04 10° NNW 23:07:42 21° NNE 23:09:56 12° ENE visible
23 May -1.5 00:41:24 10° WNW 00:42:51 23° WNW 00:42:51 23° WNW visible
23 May -1.3 22:17:14 10° NNW 22:19:25 16° NNE 22:21:36 10° ENE visible
23 May -3.6 23:53:18 10° NW 23:56:30 71° N 23:56:30 71° N visible
24 May -2.9 23:05:18 10° NW 23:08:31 43° NNE 23:10:10 24° E visible
25 May -0.9 00:42:34 10° W 00:43:04 13° W 00:43:04 13° W visible
25 May -2.2 22:17:21 10° NW 22:20:19 28° NNE 22:23:16 10° E visible
25 May -2.6 23:54:01 10° WNW 23:56:46 34° WSW 23:56:46 34° WSW visible
26 May -3.7 23:05:44 10° WNW 23:09:03 65° SW 23:10:30 30° SSE visible
27 May -3.6 22:17:35 10° NW 22:20:56 70° NE 22:24:15 10° ESE visible
27 May -1.2 23:55:55 10° WSW 23:57:11 12° SW 23:57:11 12° SW visible
28 May -1.8 23:06:41 10° W 23:09:18 21° SW 23:11:00 15° S visible
29 May -2.7 22:18:07 10° WNW 22:21:15 37° SW 22:24:22 10° SSE visible
